Location: Espelette
(43.3402°N, 1.4474°W)
Time: 20:28:54
(UTC+00:00)

Helios 1A - Pass Details

Date: 19 May 2025
Orbit: 544 x 570 km, 98.3° (Epoch: 03 June)

Event Time Altitude Azimuth Distance (km) Brightness Sun altitude
Rises 20:43:39 0° 12° (NNE) 2,783 6.9 -12.0°
Reaches altitude 10° 20:45:48 10° 12° (NNE) 1,878 6.0 -12.3°
Maximum altitude 20:49:52 83° 287° (WNW) 576 2.9 -12.8°
Drops below altitude 10° 20:53:53 10° 197° (SSW) 1,850 5.2 -13.3°
Enters shadow 20:55:42 - 197° (SSW) 2,612 6.0 -13.6°
